K8FAM-13 Weather Reports


Display with metric or nautical units.
time (UTC)temp
F
wind
direction
speed
MPH
gust
MPH
rain 1hr
in
rain 24hr
in
rain mn
in
humidity
%
barometer
mb
20260505124522 66 154 5.0 13.0 0.00 0.06 0.06 48 1007.8
20260505123020 65 315 4.0 11.0 0.00 0.06 0.06 49 1008.0
20260505121514 64 283 2.0 9.0 0.00 0.06 0.06 50 1008.0
20260505114509 63 273 2.0 9.0 0.00 0.06 0.06 51 1008.0
20260505113006 62 273 2.0 11.0 0.00 0.06 0.06 51 1008.0
20260505111506 62 191 3.0 9.0 0.00 0.06 0.06 51 1007.9
20260505101602 61 251 2.0 8.0 0.00 0.06 0.06 52 1007.3
20260505100056 60 235 3.0 9.0 0.00 0.06 0.06 52 1007.1
20260505094555 61 188 3.0 7.0 0.00 0.06 0.06 52 1006.9
20260505093055 61 251 2.0 10.0 0.00 0.06 0.06 52 1006.8
20260505091557 61 190 1.0 11.0 0.00 0.06 0.06 52 1006.8
20260505090057 61 205 1.0 10.0 0.00 0.06 0.06 52 1006.6
20260505084602 60 255 1.0 9.0 0.00 0.06 0.06 52 1006.7
20260505083105 60 236 3.0 9.0 0.00 0.06 0.06 53 1006.7
20260505081552 60 263 2.0 11.0 0.00 0.06 0.06 55 1006.6
20260505080055 59 254 3.0 6.0 0.00 0.06 0.06 56 1006.5
20260505074550 59 3 2.0 5.0 0.00 0.06 0.06 56 1006.5
20260505073057 60 153 1.0 4.0 0.00 0.06 0.06 56 1006.3
20260505071548 60 299 3.0 11.0 0.01 0.06 0.06 55 1006.4
20260505070047 60 45 2.0 9.0 0.06 0.06 0.06 55 1006.4
20260505064614 60 208 4.0 13.0 0.06 0.06 0.06 56 1006.6
20260505063044 60 292 5.0 14.0 0.06 0.06 0.06 55 1006.7
20260505061542 60 161 2.0 10.0 0.05 0.05 0.05 57 1007.0
20260505060038 63 289 2.0 5.0 0.00 0.00 0.00 51 1007.2
20260505054546 62 102 1.0 8.0 0.00 0.00 0.00 51 1006.7
20260505053035 62 279 1.0 10.0 0.00 0.00 0.00 52 1006.8
20260505051534 62 291 2.0 6.0 0.00 0.00 0.00 52 1006.8
20260505041530 62 291 0.0 5.0 0.00 0.00 0.00 52 1007.3
20260505040031 62 273 1.0 7.0 0.00 0.00 0.00 52 1007.2
20260505034533 62 165 1.0 6.0 0.00 0.00 0.00 52 1007.2
20260505033029 62 178 1.0 5.0 0.00 0.00 0.00 52 1007.2
20260505031526 62 258 1.0 5.0 0.00 0.00 0.00 52 1007.2
20260505030041 63 264 1.0 3.0 0.00 0.00 0.00 51 1007.5
20260505024525 63 264 0.0 3.0 0.00 0.00 0.00 50 1007.7
20260505023027 64 203 0.0 5.0 0.00 0.00 0.00 49 1007.7
20260505021525 64 187 0.0 7.0 0.00 0.00 0.00 48 1007.7
20260505020024 65 237 1.0 6.0 0.00 0.00 0.00 48 1007.6
20260505014525 65 275 1.0 10.0 0.00 0.00 0.00 48 1007.5
20260505013023 65 249 2.0 5.0 0.00 0.00 0.00 47 1007.2
20260505011524 66 165 3.0 9.0 0.00 0.00 0.00 46 1007.4
20260505010022 66 256 1.0 11.0 0.00 0.00 0.00 46 1007.2
20260505004536 67 323 2.0 10.0 0.00 0.00 0.00 45 1007.3
20260505003020 67 208 4.0 12.0 0.00 0.00 0.00 44 1007.3
20260505001520 67 289 2.0 12.0 0.00 0.00 0.00 44 1006.9
20260505000019 68 253 4.0 13.0 0.00 0.00 0.00 43 1007.0
20260504234520 68 181 2.0 15.0 0.00 0.00 0.00 43 1006.8
20260504233022 69 183 5.0 16.0 0.00 0.00 0.00 42 1006.9
20260504231516 69 258 4.0 11.0 0.00 0.00 0.00 42 1007.0
20260504230016 69 278 3.0 14.0 0.00 0.00 0.00 41 1007.2
20260504224515 70 224 6.0 17.0 0.00 0.00 0.00 41 1007.2
20260504223014 71 275 5.0 21.0 0.00 0.00 0.00 40 1007.2
20260504221513 71 206 3.0 12.0 0.00 0.00 0.00 40 1007.3
20260504220013 70 187 4.0 10.0 0.00 0.00 0.00 41 1007.4
20260504214511 71 258 3.0 17.0 0.00 0.00 0.00 41 1007.3
20260504213026 71 272 5.0 17.0 0.00 0.00 0.00 40 1007.3
20260504211513 72 238 2.0 16.0 0.00 0.00 0.00 40 1007.2
20260504210010 73 246 4.0 15.0 0.00 0.00 0.00 38 1007.1
20260504204509 73 264 1.0 8.0 0.00 0.00 0.00 40 1007.2
20260504203007 73 125 7.0 19.0 0.00 0.00 0.00 37 1007.3
20260504201504 72 277 3.0 12.0 0.00 0.00 0.00 40 1007.4
20260504200006 72 152 2.0 11.0 0.00 0.00 0.00 44 1007.6
20260504194606 72 271 4.0 15.0 0.00 0.00 0.00 41 1007.7
20260504193059 72 183 4.0 13.0 0.00 0.00 0.00 37 1007.8
20260504191621 72 254 5.0 10.0 0.00 0.00 0.00 38 1008.0
20260504184601 72 247 2.0 13.0 0.00 0.00 0.00 41 1008.3
20260504183050 71 305 3.0 10.0 0.00 0.00 0.00 37 1008.3
20260504181548 71 123 2.0 11.0 0.00 0.00 0.00 39 1008.4
20260504180047 71 317 4.0 16.0 0.00 0.00 0.00 38 1008.5
20260504174544 70 219 2.0 8.0 0.00 0.00 0.00 38 1008.6
20260504173044 70 349 2.0 9.0 0.00 0.00 0.00 39 1008.7
20260504171541 69 287 2.0 11.0 0.00 0.00 0.00 37 1008.8